• Join FlightAware (Why Join?)
  • Login
  • US Flag 
01:09PM EST


 

Airport Tracker/Info


-or-


 

Live Flight TrackerFlight Track Log ✈ ASQ4233 ✈ 08-May-2013 ✈ KEWR - KGSO

Flight Track Log - Related Links

Times and Time Zones

All times are in EDT time to prevent confusion due to time zone crossing. See the ASQ4233 flight status page for this flight to view local times or setup timezone preferences in your user account.

Time Position Orientation Groundspeed Altitude Reporting Facility
EDT Latitude Longitude Course Direction KTS MPH feet Rate Location/Type
01:38PM 40.7167 -74.1500 237° Southwest 167 192 1,600  Level New York TRACON
01:39PM 40.7667 -74.1000 37° Northeast 258 297 3,000 2,000 Climbing New York TRACON
01:40PM 40.8000 -74.1500 311° West 278 320 5,600 2,650 Climbing New York TRACON
01:41PM 40.7833 -74.2333 255° West 271 312 8,300 2,143 Climbing New York TRACON
01:42PM 40.5214 -74.6492 250° West  Level FlightAware Approximate
01:43PM 40.4805 -74.7753 246° West  Level FlightAware Approximate
01:43PM 40.7497 -74.3978 255° West 305 351 11,100  Level New York Center
01:44PM 40.4344 -74.8978 237° Southwest  Level FlightAware Approximate
01:44PM 40.6889 -74.4739 224° Southwest 305 351 12,500  Level New York Center
01:45PM 40.6383 -74.5614 233° Southwest 320 368 14,500 1,785 Climbing New York Center
01:46PM 40.5783 -74.6728 235° Southwest 340 391 16,100 1,230 Climbing New York Center
01:47PM 40.5272 -74.7683 235° Southwest 360 414 17,000 446 Climbing New York Center
01:48PM 40.4669 -74.8847 236° Southwest 391 450 17,000 915 Level New York Center
01:49PM 40.4003 -75.0008 233° Southwest 409 471 18,800 2,288 Climbing New York Center
01:50PM 40.3317 -75.1164 232° Southwest 392 451 21,500 1,884 Climbing New York Center
01:51PM 40.2653 -75.2183 230° Southwest 379 436 22,600 1,041 Climbing New York Center
01:52PM 40.1906 -75.3167 225° Southwest 374 430 23,600 1,361 Climbing New York Center
01:53PM 40.1181 -75.4125 225° Southwest 379 436 25,300 1,664 Climbing New York Center
01:54PM 40.0453 -75.5106 226° Southwest 379 436 26,900 1,537 Climbing New York Center
01:55PM 39.9794 -75.5928 224° Southwest 379 436 28,400 1,388 Climbing New York Center
01:56PM 39.9089 -75.6908 227° Southwest 379 436 29,700 1,240 Climbing New York Center
01:57PM 39.8439 -75.7944 231° Southwest 379 436 30,900 762 Climbing New York Center
01:59PM 39.7003 -76.0203 230° Southwest 401 461 32,000 371 Climbing Washington Center
02:00PM 39.6269 -76.1411 232° Southwest 425 489 32,000  Level Washington Center
02:01PM 39.5472 -76.2644 230° Southwest 438 504 32,000  Level Washington Center
02:02PM 39.4672 -76.3844 229° Southwest 443 510 32,000  Level Washington Center
02:03PM 39.3892 -76.5072 231° Southwest 448 516 32,000  Level Washington Center
02:04PM 39.3069 -76.6297 229° Southwest 454 522 32,000  Level Washington Center
02:05PM 39.2289 -76.7517 230° Southwest 454 522 32,000  Level Washington Center
02:06PM 39.1506 -76.8736 230° Southwest 448 516 32,000  Level Washington Center
02:07PM 39.0742 -76.9925 230° Southwest 448 516 32,000  Level Washington Center
02:08PM 38.9853 -77.1006 223° Southwest 443 510 32,000  Level Washington Center
02:09PM 38.8964 -77.2025 222° Southwest 436 502 32,000  Level Washington Center
02:10PM 38.8033 -77.3044 221° Southwest 436 502 32,000  Level Washington Center
02:11PM 38.7122 -77.4008 220° Southwest 436 502 32,000  Level Washington Center
02:12PM 38.6125 -77.5128 221° Southwest 436 502 32,000  Level Washington Center
02:13PM 38.5192 -77.6111 220° Southwest 436 502 32,000  Level Washington Center
02:14PM 38.4319 -77.7067 221° Southwest 436 502 32,000  Level Washington Center
02:15PM 38.3383 -77.8072 220° Southwest 436 502 32,000  Level Washington Center
02:16PM 38.2592 -77.9133 226° Southwest 436 502 32,000 -98 Level Washington Center
02:17PM 38.2044 -78.0464 242° Southwest 429 494 31,800 -600 Descending Washington Center
02:18PM 38.1475 -78.1819 242° Southwest 429 494 30,800 -908 Descending Washington Center
02:19PM 38.0925 -78.3119 242° Southwest 429 494 30,000 -1,091 Descending Washington Center
02:20PM 38.0208 -78.4253 231° Southwest 424 488 28,600 -992 Descending Washington Center
02:21PM 37.9333 -78.5169 220° Southwest 417 480 28,000 -356 Descending Washington Center
02:22PM 37.8433 -78.6133 220° Southwest 417 480 27,900 -756 Descending Washington Center
02:23PM 37.7531 -78.7094 220° Southwest 429 494 26,500 -934 Descending Washington Center
02:24PM 37.6694 -78.7978 220° Southwest 429 494 26,000 -1,109 Descending Washington Center
02:25PM 37.5836 -78.8886 220° Southwest 429 494 24,300 -1,966 Descending Washington Center
02:26PM 37.4956 -78.9817 220° Southwest 424 488 22,100 -1,140 Descending Washington Center
02:27PM 37.4117 -79.0694 220° Southwest 411 473 22,000 -50 Descending Washington Center
02:28PM 37.3233 -79.1619 220° Southwest 411 473 22,000  Level Washington Center
02:29PM 37.2353 -79.2467 217° Southwest 411 473 22,000  Level Washington Center
02:30PM 37.1225 -79.3194 207° Southwest 411 473 22,000 -508 Level Washington Center
02:31PM 37.0203 -79.3822 206° Southwest 417 480 21,000 -1,600 Descending Washington Center
02:32PM 36.9203 -79.4447 207° Southwest 417 480 18,800 -2,281 Descending Washington Center
02:33PM 36.8203 -79.5047 206° Southwest 405 466 16,400 -2,361 Descending Washington Center
02:35PM 36.6845 -79.5878 206° Southwest  Level Estimated
02:42PM 36.1013 -79.9411 206° Southwest  Level Estimated
02:43PM 36.1013 -79.9411 214° Southwest  Level Estimated
02:44PM 36.1013 -79.9411 214° Southwest  Level Estimated
02:45PM 36.1013 -79.9411 214° Southwest  Level Estimated
02:46PM 36.1013 -79.9411 214° Southwest  Level Estimated
02:47PM 36.1013 -79.9411 214° Southwest  Level Estimated